カタログに戻る

HULIANWANG DIGUI-34

運用中通信PO
NORAD 64287·PAYLOAD·🇨🇳 China

打ち上げ Jun 5, 2025 から Taiyuan Satellite Launch Center

Loading…

次のパス (今後24時間)

TLE

最新Source: Space-Track

元期: Sep 14, 2026, 21:20 UTC

1 64287U 25121E   26257.88922333  .00000074  00000-0  13723-3 0  9998
2 64287  86.5045 343.2711 0001468 118.1350 241.9933 13.24412579 62036

AllMySatでHULIANWANG DIGUI-34をリアルタイム追跡

Download on the App Store